When you browse on this site, cookies collect data to enhance your experience and personalize the content and advertising you see.
Visit our Privacy Policy to learn more. By continuing to use the site, you agree to this use of cookies and data.
  • Em Portugal
  • Lista de países
  • Para 7 dias
  • Temperatura da água
  • Mapa do tempo
  • Widgets de tempo
  • user-avatar
    Iniciar Sessão

    Previsão horária em Nachiczewan

    Hoje, 17 Setembro, Terça-feira

    Tempo Temperatura Precipitação Vento Pressão Humidade
    00:00 +25°C° 0 mm 2 m/s 688 mmHg 38%
    01:00 +25°C° 0 mm 1 m/s 687 mmHg 40%
    02:00 +24°C° 0 mm 1 m/s 687 mmHg 42%
    03:00 +24°C° 0 mm 1 m/s 687 mmHg 41%
    04:00 +23°C° 0 mm 1 m/s 687 mmHg 42%
    05:00 +23°C° 0 mm 1 m/s 687 mmHg 43%
    06:00 +23°C° 0 mm 1 m/s 687 mmHg 43%
    07:00 +24°C° 0 mm 1 m/s 687 mmHg 38%
    08:00 +26°C° 0 mm 1 m/s 688 mmHg 33%
    09:00 +28°C° 0 mm 1 m/s 688 mmHg 28%
    10:00 +29°C° 0 mm 1 m/s 688 mmHg 25%
    11:00 +30°C° 0 mm 1 m/s 687 mmHg 22%
    12:00 +31°C° 0 mm 2 m/s 687 mmHg 20%
    13:00 +32°C° 0 mm 2 m/s 687 mmHg 19%
    14:00 +34°C° 0 mm 2 m/s 686 mmHg 17%
    15:00 +34°C° 0 mm 3 m/s 686 mmHg 16%
    16:00 +34°C° 0 mm 3 m/s 686 mmHg 17%
    17:00 +32°C° 0 mm 2 m/s 686 mmHg 19%
    18:00 +31°C° 0 mm 2 m/s 685 mmHg 20%
    19:00 +30°C° 0 mm 3 m/s 686 mmHg 22%
    20:00 +29°C° 0 mm 3 m/s 687 mmHg 24%
    21:00 +28°C° 0 mm 4 m/s 687 mmHg 26%
    22:00 +27°C° 0 mm 3 m/s 688 mmHg 28%
    23:00 +27°C° 0 mm 3 m/s 688 mmHg 31%

    Amanhã, 18 Setembro, Quarta-feira

    Tempo Temperatura Precipitação Vento Pressão Humidade
    00:00 +26°C° 0 mm 3 m/s 688 mmHg 33%
    01:00 +25°C° 0 mm 2 m/s 688 mmHg 36%
    02:00 +24°C° 0 mm 2 m/s 688 mmHg 38%
    03:00 +23°C° 0 mm 1 m/s 688 mmHg 40%
    04:00 +23°C° 0 mm 1 m/s 688 mmHg 42%
    05:00 +22°C° 0 mm 1 m/s 688 mmHg 43%
    06:00 +22°C° 0 mm 1 m/s 688 mmHg 45%
    07:00 +23°C° 0 mm 1 m/s 689 mmHg 40%
    08:00 +25°C° 0 mm 1 m/s 689 mmHg 36%
    09:00 +26°C° 0 mm 1 m/s 690 mmHg 32%
    10:00 +27°C° 0 mm 1 m/s 690 mmHg 30%
    11:00 +28°C° 0 mm 1 m/s 690 mmHg 28%
    12:00 +29°C° 0 mm 1 m/s 690 mmHg 25%
    13:00 +30°C° 0 mm 1 m/s 690 mmHg 24%
    14:00 +31°C° 0 mm 1 m/s 689 mmHg 22%
    15:00 +31°C° 0 mm 1 m/s 689 mmHg 20%
    16:00 +31°C° 0 mm 1 m/s 689 mmHg 22%
    17:00 +30°C° 0 mm 1 m/s 689 mmHg 24%
    18:00 +30°C° 0 mm 1 m/s 689 mmHg 26%
    19:00 +29°C° 0 mm 1 m/s 689 mmHg 27%
    20:00 +28°C° 0 mm 1 m/s 689 mmHg 29%
    21:00 +27°C° 0 mm 1 m/s 690 mmHg 30%
    22:00 +26°C° 0 mm 1 m/s 689 mmHg 32%
    23:00 +26°C° 0 mm 1 m/s 689 mmHg 35%

    Depois de amanhã, 19 Setembro, Quinta-feira

    Tempo Temperatura Precipitação Vento Pressão Humidade
    00:00 +25°C° 0 mm 1 m/s 689 mmHg 37%
    01:00 +24°C° 0 mm 1 m/s 689 mmHg 38%
    02:00 +24°C° 0 mm 1 m/s 689 mmHg 40%
    03:00 +23°C° 0 mm 1 m/s 689 mmHg 41%
    04:00 +21°C° 0 mm 0 m/s 688 mmHg 42%
    05:00 +20°C° 0 mm 0 m/s 688 mmHg 43%
    06:00 +20°C° 0 mm 0 m/s 688 mmHg 44%
    07:00 +22°C° 0 mm 0 m/s 689 mmHg 39%
    08:00 +26°C° 0 mm 1 m/s 689 mmHg 33%
    09:00 +28°C° 0 mm 1 m/s 690 mmHg 27%
    10:00 +29°C° 0 mm 1 m/s 690 mmHg 25%
    11:00 +30°C° 0 mm 1 m/s 689 mmHg 23%
    12:00 +31°C° 0 mm 1 m/s 689 mmHg 21%
    13:00 +32°C° 0 mm 1 m/s 689 mmHg 19%
    14:00 +33°C° 0 mm 1 m/s 689 mmHg 17%
    15:00 +33°C° 0 mm 1 m/s 689 mmHg 15%
    16:00 +32°C° 0 mm 1 m/s 689 mmHg 17%
    17:00 +32°C° 0 mm 1 m/s 689 mmHg 18%
    18:00 +31°C° 0 mm 1 m/s 689 mmHg 19%
    19:00 +30°C° 0 mm 1 m/s 689 mmHg 22%
    20:00 +29°C° 0 mm 1 m/s 689 mmHg 25%
    21:00 +28°C° 0 mm 2 m/s 689 mmHg 29%
    22:00 +27°C° 0 mm 2 m/s 689 mmHg 31%
    23:00 +26°C° 0 mm 2 m/s 688 mmHg 34%

    20 Setembro, Sexta-feira

    Tempo Temperatura Precipitação Vento Pressão Humidade
    00:00 +25°C° 0 mm 2 m/s 688 mmHg 36%
    01:00 +25°C° 0 mm 2 m/s 688 mmHg 37%
    02:00 +24°C° 0 mm 1 m/s 688 mmHg 38%
    03:00 +23°C° 0 mm 1 m/s 687 mmHg 39%
    04:00 +23°C° 0 mm 1 m/s 687 mmHg 40%
    05:00 +22°C° 0 mm 1 m/s 687 mmHg 41%
    06:00 +22°C° 0 mm 1 m/s 687 mmHg 42%
    07:00 +24°C° 0 mm 1 m/s 687 mmHg 37%
    08:00 +26°C° 0 mm 1 m/s 688 mmHg 33%
    09:00 +27°C° 0 mm 1 m/s 688 mmHg 28%
    10:00 +29°C° 0 mm 1 m/s 688 mmHg 26%
    11:00 +30°C° 0 mm 1 m/s 687 mmHg 23%
    12:00 +32°C° 0 mm 2 m/s 687 mmHg 20%
    13:00 +34°C° 0 mm 2 m/s 687 mmHg 18%
    14:00 +35°C° 0 mm 2 m/s 686 mmHg 16%
    15:00 +35°C° 0 mm 2 m/s 686 mmHg 14%
    16:00 +35°C° 0 mm 2 m/s 685 mmHg 15%
    17:00 +34°C° 0 mm 2 m/s 685 mmHg 16%
    18:00 +32°C° 0 mm 2 m/s 685 mmHg 17%
    19:00 +31°C° 0 mm 2 m/s 685 mmHg 19%
    20:00 +30°C° 0 mm 2 m/s 685 mmHg 21%
    21:00 +29°C° 0 mm 2 m/s 685 mmHg 23%
    22:00 +29°C° 0 mm 2 m/s 685 mmHg 24%
    23:00 +28°C° 0 mm 2 m/s 685 mmHg 25%

    21 Setembro, Sábado

    Tempo Temperatura Precipitação Vento Pressão Humidade
    00:00 +27°C° 0 mm 2 m/s 685 mmHg 26%
    01:00 +27°C° 0 mm 2 m/s 684 mmHg 27%
    02:00 +26°C° 0 mm 2 m/s 684 mmHg 27%
    03:00 +26°C° 0 mm 1 m/s 684 mmHg 27%
    04:00 +25°C° 0 mm 2 m/s 684 mmHg 31%
    05:00 +24°C° 0 mm 2 m/s 683 mmHg 36%
    06:00 +23°C° 0 mm 2 m/s 683 mmHg 40%
    07:00 +24°C° 0 mm 3 m/s 683 mmHg 39%
    08:00 +23°C° 0 mm 4 m/s 683 mmHg 38%
    09:00 +25°C° 0 mm 5 m/s 683 mmHg 37%
    10:00 +26°C° 0 mm 5 m/s 683 mmHg 34%
    11:00 +28°C° 0 mm 4 m/s 683 mmHg 30%
    12:00 +29°C° 0 mm 4 m/s 683 mmHg 27%
    13:00 +30°C° 0 mm 4 m/s 682 mmHg 25%
    14:00 +30°C° 0 mm 4 m/s 682 mmHg 24%
    15:00 +32°C° 0 mm 4 m/s 682 mmHg 22%
    16:00 +30°C° 0 mm 3 m/s 682 mmHg 24%
    17:00 +29°C° 0 mm 3 m/s 682 mmHg 26%
    18:00 +28°C° 0 mm 3 m/s 683 mmHg 27%
    19:00 +27°C° 0 mm 4 m/s 683 mmHg 30%
    20:00 +25°C° 0 mm 4 m/s 684 mmHg 32%
    21:00 +23°C° 0 mm 5 m/s 684 mmHg 35%
    22:00 +22°C° 0 mm 5 m/s 684 mmHg 37%
    23:00 +21°C° 0 mm 5 m/s 685 mmHg 38%

    22 Setembro, Domingo

    Tempo Temperatura Precipitação Vento Pressão Humidade
    00:00 +20°C° 0 mm 5 m/s 685 mmHg 40%
    01:00 +19°C° 0 mm 4 m/s 685 mmHg 41%
    02:00 +18°C° 0 mm 4 m/s 685 mmHg 43%
    03:00 +17°C° 0 mm 4 m/s 685 mmHg 44%
    04:00 +17°C° 0 mm 3 m/s 685 mmHg 46%
    05:00 +16°C° 0 mm 3 m/s 685 mmHg 47%
    06:00 +16°C° 0 mm 2 m/s 685 mmHg 48%
    07:00 +17°C° 0 mm 3 m/s 686 mmHg 45%
    08:00 +18°C° 0 mm 3 m/s 686 mmHg 42%
    09:00 +19°C° 0 mm 4 m/s 687 mmHg 40%
    10:00 +20°C° 0 mm 3 m/s 687 mmHg 38%
    11:00 +21°C° 0 mm 3 m/s 687 mmHg 36%
    12:00 +22°C° 0 mm 3 m/s 687 mmHg 34%
    13:00 +22°C° 0 mm 3 m/s 686 mmHg 34%
    14:00 +24°C° 0 mm 3 m/s 686 mmHg 33%
    15:00 +24°C° 0 mm 2 m/s 686 mmHg 32%
    16:00 +22°C° 0 mm 3 m/s 686 mmHg 34%
    17:00 +22°C° 0 mm 3 m/s 686 mmHg 36%
    18:00 +21°C° 0 mm 3 m/s 686 mmHg 38%
    19:00 +19°C° 0 mm 4 m/s 687 mmHg 41%
    20:00 +18°C° 0 mm 4 m/s 687 mmHg 45%
    21:00 +15°C° 0 mm 4 m/s 687 mmHg 48%
    22:00 +14°C° 0 mm 3 m/s 688 mmHg 50%
    23:00 +14°C° 0 mm 3 m/s 688 mmHg 51%
    Mostrar mais